Hourly Weather Danilovka

Today, 23 April, Friday

Time Temperature Precipitation Wind Pressure Humidity
00:00 +7°C° 0 mm 4 mps 760 mmHg 43%
01:00 +8°C° 0 mm 3 mps 760 mmHg 45%
02:00 +7°C° 0 mm 3 mps 760 mmHg 46%
03:00 +7°C° 0 mm 3 mps 760 mmHg 48%
04:00 +7°C° 0 mm 3 mps 760 mmHg 47%
05:00 +7°C° 0 mm 2 mps 760 mmHg 47%
06:00 +7°C° 0 mm 2 mps 759 mmHg 46%
07:00 +9°C° 0 mm 3 mps 760 mmHg 41%
08:00 +11°C° 0 mm 3 mps 760 mmHg 36%
09:00 +13°C° 0 mm 4 mps 760 mmHg 31%
10:00 +14°C° 0 mm 4 mps 759 mmHg 30%
11:00 +17°C° 0 mm 3 mps 759 mmHg 29%
12:00 +18°C° 0 mm 3 mps 759 mmHg 28%
13:00 +19°C° 0 mm 3 mps 759 mmHg 27%
14:00 +19°C° 0 mm 3 mps 758 mmHg 27%
15:00 +20°C° 0 mm 2 mps 758 mmHg 27%
16:00 +19°C° 0 mm 2 mps 758 mmHg 31%
17:00 +18°C° 0 mm 2 mps 758 mmHg 35%
18:00 +18°C° 0 mm 1 mps 758 mmHg 38%
19:00 +16°C° 0 mm 1 mps 758 mmHg 40%
20:00 +15°C° 0 mm 1 mps 758 mmHg 42%
21:00 +13°C° 0 mm 0 mps 758 mmHg 44%
22:00 +13°C° 0 mm 1 mps 758 mmHg 49%
23:00 +13°C° 0 mm 1 mps 758 mmHg 53%

Tomorrow, 24 April, Saturday

Time Temperature Precipitation Wind Pressure Humidity
00:00 +13°C° 0 mm 1 mps 758 mmHg 58%
01:00 +13°C° 0 mm 1 mps 758 mmHg 61%
02:00 +12°C° 0 mm 0 mps 758 mmHg 64%
03:00 +12°C° 0 mm 0 mps 758 mmHg 67%
04:00 +13°C° 0 mm 1 mps 757 mmHg 70%
05:00 +12°C° 0 mm 1 mps 757 mmHg 74%
06:00 +12°C° 0 mm 2 mps 757 mmHg 77%
07:00 +11°C° 0 mm 3 mps 757 mmHg 70%
08:00 +10°C° 0 mm 5 mps 758 mmHg 64%
09:00 +10°C° 0 mm 7 mps 758 mmHg 57%
10:00 +9°C° 0 mm 7 mps 758 mmHg 60%
11:00 +8°C° 0 mm 7 mps 758 mmHg 62%
12:00 +6°C° 0 mm 7 mps 758 mmHg 64%
13:00 +5°C° 0.5 mm 5 mps 758 mmHg 72%
14:00 +4°C° 0.5 mm 4 mps 758 mmHg 80%
15:00 +2°C° 0.5 mm 3 mps 758 mmHg 88%
16:00 +4°C° 0.3 mm 2 mps 758 mmHg 84%
17:00 +4°C° 0.3 mm 2 mps 758 mmHg 80%
18:00 +6°C° 0.3 mm 1 mps 758 mmHg 76%
19:00 +5°C° 0 mm 1 mps 758 mmHg 79%
20:00 +4°C° 0 mm 1 mps 757 mmHg 81%
21:00 +2°C° 0 mm 0 mps 757 mmHg 84%
22:00 +2°C° 0 mm 0 mps 757 mmHg 82%
23:00 +2°C° 0 mm 0 mps 757 mmHg 80%

Day after tomorrow, 25 April, Sunday

Time Temperature Precipitation Wind Pressure Humidity
00:00 +2°C° 0 mm 0 mps 757 mmHg 78%
01:00 +3°C° 0 mm 1 mps 757 mmHg 76%
02:00 +3°C° 0 mm 1 mps 757 mmHg 74%
03:00 +3°C° 0 mm 1 mps 756 mmHg 72%
04:00 +3°C° 0 mm 1 mps 756 mmHg 71%
05:00 +3°C° 0 mm 1 mps 756 mmHg 70%
06:00 +3°C° 0 mm 1 mps 756 mmHg 70%
07:00 +3°C° 0 mm 3 mps 756 mmHg 59%
08:00 +6°C° 0 mm 4 mps 756 mmHg 48%
09:00 +9°C° 0 mm 5 mps 755 mmHg 37%
10:00 +9°C° 0 mm 6 mps 755 mmHg 35%
11:00 +9°C° 0 mm 7 mps 756 mmHg 33%
12:00 +9°C° 0 mm 8 mps 756 mmHg 31%
13:00 +10°C° 0 mm 8 mps 756 mmHg 27%
14:00 +10°C° 0 mm 8 mps 756 mmHg 24%
15:00 +10°C° 0 mm 8 mps 756 mmHg 21%
16:00 +9°C° 0 mm 7 mps 756 mmHg 22%
17:00 +9°C° 0 mm 6 mps 756 mmHg 24%
18:00 +8°C° 0 mm 5 mps 756 mmHg 25%
19:00 +8°C° 0 mm 3 mps 757 mmHg 27%
20:00 +6°C° 0 mm 2 mps 757 mmHg 29%
21:00 +6°C° 0 mm 1 mps 757 mmHg 31%
22:00 +6°C° 0 mm 1 mps 758 mmHg 31%
23:00 +5°C° 0 mm 1 mps 758 mmHg 31%

26 April, Monday

Time Temperature Precipitation Wind Pressure Humidity
00:00 +5°C° 0 mm 1 mps 758 mmHg 32%
01:00 +4°C° 0 mm 1 mps 758 mmHg 33%
02:00 +4°C° 0 mm 1 mps 758 mmHg 34%
03:00 +3°C° 0 mm 1 mps 758 mmHg 35%
04:00 +2°C° 0 mm 2 mps 757 mmHg 36%
05:00 +2°C° 0 mm 2 mps 757 mmHg 36%
06:00 +2°C° 0 mm 2 mps 757 mmHg 37%
07:00 +4°C° 0 mm 3 mps 757 mmHg 34%
08:00 +8°C° 0 mm 3 mps 757 mmHg 30%
09:00 +11°C° 0 mm 4 mps 756 mmHg 26%
10:00 +12°C° 0 mm 5 mps 756 mmHg 25%
11:00 +13°C° 0 mm 5 mps 755 mmHg 24%
12:00 +15°C° 0 mm 6 mps 755 mmHg 23%
13:00 +14°C° 0 mm 6 mps 754 mmHg 26%
14:00 +14°C° 0 mm 7 mps 754 mmHg 28%
15:00 +13°C° 0 mm 8 mps 753 mmHg 31%
16:00 +11°C° 0 mm 8 mps 753 mmHg 38%
17:00 +10°C° 0 mm 7 mps 753 mmHg 44%
18:00 +9°C° 0 mm 7 mps 753 mmHg 51%
19:00 +8°C° 0 mm 7 mps 753 mmHg 56%
20:00 +8°C° 0 mm 7 mps 753 mmHg 61%
21:00 +6°C° 0 mm 7 mps 753 mmHg 66%
22:00 +6°C° 0 mm 7 mps 753 mmHg 70%
23:00 +6°C° 0 mm 7 mps 753 mmHg 73%

27 April, Tuesday

Time Temperature Precipitation Wind Pressure Humidity
00:00 +6°C° 0 mm 7 mps 753 mmHg 76%
01:00 +6°C° 0 mm 7 mps 752 mmHg 77%
02:00 +7°C° 0 mm 6 mps 752 mmHg 78%
03:00 +7°C° 0 mm 6 mps 752 mmHg 80%
04:00 +7°C° 0 mm 6 mps 751 mmHg 81%
05:00 +8°C° 0 mm 6 mps 751 mmHg 81%
06:00 +8°C° 0 mm 6 mps 751 mmHg 82%
07:00 +9°C° 0 mm 6 mps 751 mmHg 79%
08:00 +10°C° 0 mm 7 mps 751 mmHg 75%
09:00 +11°C° 0 mm 7 mps 750 mmHg 72%
10:00 +11°C° 0 mm 7 mps 750 mmHg 73%
11:00 +11°C° 0 mm 7 mps 750 mmHg 73%
12:00 +11°C° 0 mm 7 mps 749 mmHg 74%
13:00 +11°C° 0 mm 7 mps 749 mmHg 73%
14:00 +12°C° 0 mm 7 mps 749 mmHg 72%
15:00 +12°C° 0 mm 7 mps 748 mmHg 71%
16:00 +11°C° 0.1 mm 6 mps 748 mmHg 75%
17:00 +10°C° 0.1 mm 6 mps 748 mmHg 78%
18:00 +10°C° 0.1 mm 5 mps 748 mmHg 81%
19:00 +9°C° 0.4 mm 5 mps 748 mmHg 85%
20:00 +10°C° 0.4 mm 4 mps 748 mmHg 88%
21:00 +8°C° 0.4 mm 4 mps 748 mmHg 91%
22:00 +8°C° 0.3 mm 4 mps 748 mmHg 91%
23:00 +8°C° 0.3 mm 4 mps 748 mmHg 91%

28 April, Wednesday

Time Temperature Precipitation Wind Pressure Humidity
00:00 +9°C° 0.3 mm 3 mps 748 mmHg 92%
01:00 +9°C° 0 mm 3 mps 748 mmHg 93%
02:00 +8°C° 0 mm 3 mps 748 mmHg 94%
03:00 +8°C° 0 mm 3 mps 747 mmHg 96%
04:00 +8°C° 0 mm 3 mps 747 mmHg 96%
05:00 +7°C° 0 mm 2 mps 747 mmHg 96%
06:00 +7°C° 0 mm 2 mps 747 mmHg 96%
07:00 +9°C° 0 mm 3 mps 747 mmHg 87%
08:00 +11°C° 0 mm 3 mps 747 mmHg 79%
09:00 +13°C° 0 mm 4 mps 746 mmHg 70%
10:00 +14°C° 0 mm 4 mps 746 mmHg 63%
11:00 +17°C° 0 mm 4 mps 745 mmHg 56%
12:00 +18°C° 0 mm 4 mps 745 mmHg 48%
13:00 +17°C° 0.5 mm 4 mps 744 mmHg 54%
14:00 +15°C° 0.5 mm 5 mps 744 mmHg 60%
15:00 +14°C° 0.5 mm 5 mps 744 mmHg 66%
16:00 +13°C° 1.6 mm 4 mps 744 mmHg 69%
17:00 +12°C° 1.6 mm 3 mps 745 mmHg 71%
18:00 +12°C° 1.6 mm 2 mps 746 mmHg 74%
19:00 +12°C° 0.3 mm 2 mps 746 mmHg 72%
20:00 +11°C° 0.3 mm 1 mps 746 mmHg 70%
21:00 +11°C° 0.3 mm 1 mps 747 mmHg 68%
22:00 +10°C° 0 mm 1 mps 747 mmHg 71%
23:00 +9°C° 0 mm 1 mps 747 mmHg 73%
Show more